Canby, MN

9:50 PM CST on December 12, 2017 (GMT -0600)
Canby

Weather History for KCNB - January, 2013

Change the Weather History Date:

Tuesday, January 29, 2013

  Actual Average (KMML) Record (KMML)
Temperature  
Mean Temperature 26 °F -  
Max Temperature 31 °F 22 °F 50 °F (1990)
Min Temperature 20 °F 5 °F -26 °F (1966)
Degree Days  
Heating Degree Days 40    
Moisture  
Dew Point 24 °F    
Average Humidity 94    
Maximum Humidity 100    
Minimum Humidity 81    
Precipitation  
Precipitation 0.00 in - - ()
Sea Level Pressure  
Sea Level Pressure 29.72 in    
Wind  
Wind Speed 0 mph (North)    
Max Wind Speed 0 mph    
Max Gust Speed -    
Visibility 6 miles    
Events Snow    
Averages and records for this station are not official NWS values.
T = Trace of Precipitation, MM = Missing Value Source: NWS Daily Summary

Daily Weather History Graph

Daily Weather History Graph

Search for Another Location

Airport or City:

Trip Planner

Search our weather history database for the weather conditions in past years. The results will help you decide how hot, cold, wet, or windy it might be!

Date:

Astronomy

Jan. 29, 2013 Rise Set
Actual Time 7:47 AM CST 5:29 PM CST
Civil Twilight 7:15 AM CST 6:01 PM CST
Nautical Twilight 6:40 AM CST 6:36 PM CST
Astronomical Twilight 6:06 AM CST 7:10 PM CST
Moon 8:37 PM CST (1/29) 8:36 AM CST (1/29)
Length of Visible Light 10h 45m
Length of Day
9h 42m
Waning Gibbous, 93% of the Moon is Illuminated
Jan 29
Waning Gibbous
Feb 3
Last Quarter
Feb 10
New
Feb 17
First Quarter
Feb 25
Full

Hourly Weather History & Observations

Time (CST) Temp. Dew Point Humidity Pressure Visibility Wind Dir Wind Speed Gust Speed Precip Events Conditions
12:01 AM 31.6 °F 31.8 °F 100% 29.63 in 2.0 mi Calm Calm - N/A   Overcast
12:15 AM 31.5 °F 31.6 °F 100% 29.61 in 2.0 mi Calm Calm - N/A   Overcast
12:35 AM 30.7 °F 30.7 °F 100% 29.65 in 2.5 mi Calm Calm - N/A   Overcast
12:56 AM 30.0 °F 30.2 °F 100% 29.61 in 2.5 mi Calm Calm - N/A   Overcast
1:16 AM 29.3 °F 29.3 °F 100% 29.64 in 1.8 mi Calm Calm - N/A   Overcast
1:35 AM 28.4 °F 28.4 °F 100% 29.63 in 1.2 mi Calm Calm - N/A Snow Light Snow
1:56 AM 27.9 °F 27.9 °F 100% 29.62 in 3.0 mi Calm Calm - N/A Snow Light Snow
2:16 AM 27.3 °F 27.1 °F 99% 29.62 in 5.0 mi Calm Calm - N/A   Overcast
2:56 AM 26.6 °F 25.7 °F 96% 29.65 in 7.0 mi Calm Calm - N/A   Overcast
3:15 AM 26.6 °F 25.7 °F 96% 29.64 in 5.0 mi Calm Calm - N/A   Overcast
3:36 AM 26.4 °F 25.7 °F 97% 29.63 in 7.0 mi Calm Calm - N/A   Overcast
4:00 AM 26.2 °F 25.3 °F 96% 29.63 in 7.0 mi Calm Calm - N/A   Overcast
4:15 AM 26.1 °F 25.2 °F 96% 29.63 in 5.0 mi Calm Calm - N/A   Overcast
4:36 AM 25.7 °F 24.8 °F 96% 29.61 in 5.0 mi Calm Calm - N/A   Mostly Cloudy
5:16 AM 25.5 °F 24.6 °F 96% 29.62 in 5.0 mi Calm Calm - N/A   Overcast
5:36 AM 25.7 °F 24.8 °F 96% 29.62 in 5.0 mi Calm Calm - N/A   Overcast
6:16 AM 26.4 °F 25.3 °F 96% 29.64 in 5.0 mi Calm Calm - N/A   Overcast
6:36 AM 27.0 °F 25.7 °F 95% 29.66 in 5.0 mi Calm Calm - N/A   Overcast
6:55 AM 27.0 °F 25.7 °F 95% 29.66 in 7.0 mi Calm Calm - N/A   Overcast
7:16 AM 26.6 °F 25.7 °F 96% 29.67 in 7.0 mi Calm Calm - N/A   Overcast
7:36 AM 27.0 °F 25.9 °F 96% 29.67 in 7.0 mi Calm Calm - N/A   Overcast
7:55 AM 27.3 °F 26.2 °F 96% 29.68 in 5.0 mi Calm Calm - N/A   Overcast
8:16 AM 27.3 °F 26.1 °F 95% 29.68 in 5.0 mi Calm Calm - N/A   Mostly Cloudy
8:36 AM 27.9 °F 26.2 °F 94% 29.67 in 5.0 mi Calm Calm - N/A   Scattered Clouds
8:55 AM 28.0 °F 26.4 °F 94% 29.68 in 5.0 mi Calm Calm - N/A   Scattered Clouds
9:16 AM 28.0 °F 26.6 °F 94% 29.69 in 5.0 mi Calm Calm - N/A   Overcast
9:36 AM 28.2 °F 26.4 °F 93% 29.71 in 5.0 mi Calm Calm - N/A   Overcast
9:56 AM 28.4 °F 26.2 °F 92% 29.71 in 5.0 mi Calm Calm - N/A   Mostly Cloudy
10:15 AM 28.4 °F 26.1 °F 91% 29.71 in 5.0 mi Calm Calm - N/A   Scattered Clouds
10:36 AM 27.9 °F 25.3 °F 90% 29.71 in 5.0 mi Calm Calm - N/A   Clear
10:56 AM 28.2 °F 25.7 °F 90% 29.72 in 5.0 mi Calm Calm - N/A   Mostly Cloudy
11:15 AM 27.9 °F 24.8 °F 88% 29.72 in 5.0 mi Calm Calm - N/A   Scattered Clouds
11:36 AM 27.3 °F 24.4 °F 89% 29.73 in 5.0 mi Calm Calm - N/A   Scattered Clouds
11:55 AM 26.6 °F 24.8 °F 93% 29.73 in 4.0 mi Calm Calm - N/A   Overcast
12:16 PM 26.1 °F 24.6 °F 94% 29.73 in 3.0 mi Calm Calm - N/A   Overcast
12:36 PM 25.9 °F 24.6 °F 95% 29.72 in 3.0 mi Calm Calm - N/A   Overcast
12:55 PM 25.7 °F 24.8 °F 96% 29.71 in 2.5 mi Calm Calm - N/A   Overcast
1:16 PM 26.1 °F 25.2 °F 96% 29.71 in 2.5 mi Calm Calm - N/A   Overcast
1:36 PM 25.9 °F 24.8 °F 96% 29.72 in 3.0 mi Calm Calm - N/A   Overcast
1:56 PM 25.7 °F 24.4 °F 95% 29.72 in 3.0 mi Calm Calm - N/A   Overcast
2:16 PM 25.7 °F 24.8 °F 96% 29.73 in 2.5 mi Calm Calm - N/A   Overcast
2:35 PM 25.2 °F 24.3 °F 96% 29.73 in 2.5 mi Calm Calm - N/A   Overcast
2:56 PM 24.6 °F 23.7 °F 96% 29.73 in 3.0 mi Calm Calm - N/A   Overcast
3:16 PM 23.4 °F 22.1 °F 95% 29.74 in 4.0 mi Calm Calm - N/A   Overcast
3:56 PM 22.8 °F 21.6 °F 95% 29.75 in 4.0 mi Calm Calm - N/A   Overcast
4:16 PM 22.1 °F 21.2 °F 96% 29.76 in 4.0 mi Calm Calm - N/A   Overcast
4:36 PM 22.1 °F 21.0 °F 96% 29.75 in 4.0 mi Calm Calm - N/A   Overcast
4:55 PM 21.9 °F 20.8 °F 96% 29.76 in 5.0 mi Calm Calm - N/A   Overcast
5:16 PM 22.1 °F 21.2 °F 96% 29.76 in 4.0 mi Calm Calm - N/A   Overcast
5:36 PM 22.8 °F 21.6 °F 95% 29.77 in 5.0 mi Calm Calm - N/A   Overcast
5:55 PM 22.5 °F 21.2 °F 95% 29.78 in 7.0 mi Calm Calm - N/A   Overcast
6:16 PM 22.5 °F 21.2 °F 95% 29.79 in 7.0 mi Calm Calm - N/A   Overcast
6:36 PM 22.8 °F 21.4 °F 94% 29.79 in 5.0 mi Calm Calm - N/A   Overcast
6:55 PM 22.8 °F 21.6 °F 95% 29.80 in 7.0 mi Calm Calm - N/A   Overcast
7:16 PM 23.0 °F 21.7 °F 95% 29.80 in 7.0 mi Calm Calm - N/A   Overcast
7:35 PM 23.0 °F 21.7 °F 95% 29.81 in 7.0 mi Calm Calm - N/A   Overcast
7:56 PM 23.2 °F 21.4 °F 93% 29.83 in 7.0 mi Calm Calm - N/A   Overcast
8:15 PM 23.0 °F 20.3 °F 89% 29.83 in 7.0 mi Calm Calm - N/A   Overcast
8:35 PM 23.2 °F 20.1 °F 88% 29.83 in 10.0 mi Calm Calm - N/A   Overcast
8:56 PM 23.0 °F 19.8 °F 87% 29.84 in 10.0 mi Calm Calm - N/A   Overcast
9:15 PM 23.0 °F 19.4 °F 86% 29.84 in 10.0 mi Calm Calm - N/A   Overcast
9:35 PM 23.0 °F 18.5 °F 83% 29.84 in 10.0 mi Calm Calm - N/A   Overcast
9:56 PM 22.8 °F 18.9 °F 85% 29.85 in 10.0 mi Calm Calm - N/A   Overcast
10:15 PM 22.5 °F 17.4 °F 81% 29.84 in 10.0 mi Calm Calm - N/A   Overcast
10:36 PM 22.3 °F 17.4 °F 82% 29.85 in 10.0 mi Calm Calm - N/A   Overcast
10:55 PM 22.1 °F 17.4 °F 82% 29.84 in 10.0 mi Calm Calm - N/A   Mostly Cloudy
11:16 PM 21.4 °F 17.6 °F 85% 29.82 in 10.0 mi Calm Calm - N/A   Scattered Clouds
11:35 PM 20.7 °F 17.4 °F 87% 29.83 in 10.0 mi Calm Calm - N/A   Scattered Clouds
11:56 PM 20.3 °F 17.4 °F 89% 29.85 in 10.0 mi Calm Calm - N/A   Mostly Cloudy